Overview Statistics Trail Chart Weather Telemetry Raw packets
 

This is the latest recevied weather packets stored in our database for station/object KC3JUG-13. If no packets are shown the sender has not sent any weather packets the latest 10 day(s).

<< 7 8 9 10 11 12 13 >>
Time Temp. Humidity Pressure Rain* Wind** Luminosity Snow
1788469886 28.33° C 78% 1014.3 hPa 0 mm - - -
1788469106 28.33° C 76% 1014.3 hPa 0 mm - - -
1788468326 28.33° C 77% 1014.6 hPa 0 mm - - -
1788467546 27.78° C 78% 1014.8 hPa 0 mm - - -
1788466766 28.89° C 76% 1014.8 hPa 0 mm - - -
1788465986 28.89° C 76% 1015.1 hPa 0 mm - - -
1788465206 28.33° C 76% 1015.3 hPa 0 mm - - -
1788464426 28.33° C 76% 1015.2 hPa 0 mm - - -
1788463646 28.33° C 75% 1015.4 hPa 0 mm - - -
1788462866 28.33° C 75% 1015.6 hPa 0 mm - - -
1788462086 27.78° C 78% 1015.8 hPa 0 mm - - -
1788461340 27.22° C 83% 1015.8 hPa 0 mm - - -
1788461306 27.22° C 83% 1015.8 hPa 0 mm - - -
1788460526 27.22° C 82% 1016.2 hPa 0 mm - - -
1788459746 26.67° C 82% 1016.3 hPa 0 mm - - -
1788458966 26.67° C 84% 1016.2 hPa 0 mm - - -
1788458186 26.11° C 83% 1016.5 hPa 0 mm - - -
1788457406 26.11° C 84% 1016.6 hPa 0 mm - - -
1788456626 25.56° C 86% 1016.7 hPa 0 mm - - -
1788455846 25.56° C 87% 1016.8 hPa 0 mm - - -
1788455066 25° C 86% 1017 hPa 0 mm - - -
1788454286 25° C 85% 1017.3 hPa 0 mm - - -
1788453506 25.56° C 86% 1017.5 hPa 0 mm - - -
1788452726 25° C 88% 1017.5 hPa 0 mm - - -
1788451946 25° C 87% 1017.8 hPa 0 mm - - -

* Rain latest hour (hover to see other rain measurements)
** Current wind speed in m/s (hover to see current wind gust speed)